Home   Weather   Honolulu   Past weeks

Flag for USA Past Weather in Honolulu, Hawaii, USA — Yesterday and Last 2 Weeks

Now
74 °F

Passing clouds.


Feels Like: 77 °F
Forecast: 69 / 76 °F
Wind: 6 mph from North

Location: Honolulu International Airport

Current Time: Jan 21, 2017 at 1:10:27 am

Latest Report: Jan 20, 2017 at 11:53 pm


Visibility: 10 mi

Pressure: 30.12 "Hg

Humidity: 60%

Dew Point: 59 °F

Location of HonoluluLocation

Past Weather in Honolulu — Graph

°F

Honolulu Temperature Yesterday

Maximum temperature yesterday: 81 °F (at 12:53 pm)
Minimum temperature yesterday: 70 °F (at 1:53 am)
Average temperature yesterday: 75 °F

High & Low Weather Summary for the Past Weeks

 TemperatureHumidityPressure
High84 °F (Jan 14, 11:53 am)90% (Jan 10, 5:53 am)30.19 "Hg (Jan 10, 5:53 am)
Low62 °F (Jan 7, 2:53 am)37% (Jan 6, 12:53 pm)29.92 "Hg (Jan 6, 3:53 pm)
Average74 °F67%30.05 "Hg
* Reported Jan 5 11:53 pm — Jan 20 11:53 pm, Honolulu, Weather by CustomWeather, © 2017

Note: Actual official high and low records may vary slightly from our data, if they occured in-between our weather recording intervals... More about our weather records

Advertising

Honolulu Weather History for the Previous 24 Hours

Scroll right to see more
 ConditionsComfort  
Time TempWeatherWind HumidityBarometerVisibility
11:53 pm
Fri, Jan 20
74 °FPassing clouds.6 mph60%30.12 "Hg10 mi
10:53 pm75 °FPassing clouds.7 mph58%30.13 "Hg10 mi
9:53 pm75 °FPassing clouds.8 mph55%30.14 "Hg10 mi
8:53 pm75 °FPassing clouds.6 mph54%30.13 "Hg10 mi
7:53 pm75 °FPartly cloudy.8 mph60%30.11 "Hg10 mi
6:53 pm75 °FPartly cloudy.9 mph60%30.10 "Hg10 mi
5:53 pm76 °FBroken clouds.12 mph58%30.09 "Hg10 mi
4:53 pm78 °FMore clouds than sun.9 mph50%30.08 "Hg10 mi
3:53 pm80 °FMore clouds than sun.14 mph44%30.06 "Hg10 mi
2:53 pm80 °FBroken clouds.9 mph44%30.06 "Hg10 mi
1:53 pm80 °FScattered clouds.6 mph44%30.06 "Hg10 mi
12:53 pm81 °FPartly sunny.9 mph42%30.09 "Hg10 mi
11:53 am78 °FPartly sunny.6 mph52%30.14 "Hg10 mi
10:53 am77 °FBroken clouds.7 mph58%30.17 "Hg10 mi
9:53 am76 °FBroken clouds.5 mph58%30.17 "Hg10 mi
8:53 am74 °FPartly sunny.8 mph64%30.16 "Hg10 mi
7:53 am72 °FPartly sunny.5 mph71%30.14 "Hg10 mi
6:53 am72 °FPassing clouds.7 mph71%30.12 "Hg10 mi
5:53 am71 °FPassing clouds.9 mph73%30.11 "Hg10 mi
4:53 am70 °FPartly cloudy.7 mph76%30.09 "Hg10 mi
3:53 am70 °FPassing clouds.6 mph76%30.09 "Hg10 mi
2:53 am70 °FPassing clouds.6 mph76%30.11 "Hg10 mi
1:53 am70 °FPassing clouds.6 mph79%30.12 "Hg10 mi
Weather by CustomWeather, © 2017

See weather overviewHow to use our weather pages